星链-3849 (STARLINK-3849 )

导读

STARLINK-3849是美国SpaceX公司星链(Starlink)星座的一员,于2022年4月29日发射升空。星链项目旨在构建全球卫星互联网,为全球偏远、网络基础设施薄弱区域提供高速宽带互联网接入服务,该卫星运行在近地轨道,属于星链星座组网卫星,是SpaceX推进大规模低轨卫星星座建设的组成部分,助力实现全球全域的网络覆盖目标。

基本信息
目录编号:
52343
目录名称:
STARLINK-3849
国际标识:
2022-045N
轨道中心:
EARTH
卫星名称:
星链-3849
卫星全名:
星链-3849 (STARLINK-3849 )
卫星状态:
在轨 (已飞行1597 天)
发射日期:
2022-04-29 UTC
国别 :
美国 (US)
星等 :
--
该卫星已列入 空间交会检测服务 Space Conjunction Data Service (SCDS) ,当前飞行风险评估等级: 高风险
轨道信息
数据来源 国际轨道数据
星历时间: 2026-09-12T08:00:02+0800
8小时前
查看轨道信息
半长轴: 6860.2km
偏心率: 0.0001966
轨道倾角: 53.160°
近地点辐角 79.129°
升交点赤经 91.186°
平近点角 74.144°
近地点: 480.714km
远地点: 483.412km
周期: 94.246分钟
每日圈数: 15.279094
详细信息
固有亮度:
5
最大亮度:
2.5
卫星平台:
Starlink v1.5
覆盖范围:
全球
运营商:
太空探索技术公司
运营商所在国:
美国
制造商(研发单位):
太空探索技术公司
制造商所在国:
美国
使用方式:
暂无
卫星简介
星链(Starlink)计划是由太空探索技术公司(SpaceX)提出的一个巨型低轨卫星互联网星座项目,计划在2019年至2024年间在太空搭建由约1.2万颗卫星组成的“星链”网络,其中1584颗将部署在地球上空550千米处的近地轨道,并从2020年开始工作。该卫星仍在工作。
2D轨道图
3D轨道图
轨道高度分析图
轨道倾角分析图
轨道综合分析图
查看轨道综合分析图
交会数据列表
事件ID 空间交会对象 最接近时刻(TCA) 交会距离 交会风险概率(CRP) 交会风险指数(CRI) 操作
CDM_260914-012205-234305-860621
2026-09-14T
01:22:01+0000
0.229 km
中距离
5.834573E-4 高风险 0.9
CDM_260913-170505-234305-840621
2026-09-13T
17:05:40+0000
0.165 km
中距离
5.17033E-4 高风险 0.89
CDM_260914-150405-234305-789621
2026-09-14T
15:04:31+0000
0.475 km
远距离
1.773144E-4 高风险 0.8
CDM_260913-104805-234305-840621
2026-09-13T
10:48:52+0000
0.496 km
远距离
6.208657E-5 中风险 0.71
CDM_260913-091405-234305-840621
2026-09-13T
09:14:40+0000
0.911 km
远距离
9.076893E-6 低风险 0.54
CDM_260913-153105-234305-840621
2026-09-13T
15:31:28+0000
0.921 km
远距离
8.789956E-6 低风险 0.54
CDM_260912-083305-234305-860621
2026-09-12T
08:33:41+0000
1.430 km
极远距离
5.607172E-6 低风险 0.5
CDM_260913-122305-234305-840621
2026-09-13T
12:23:04+0000
1.066 km
极远距离
5.335955E-6 低风险 0.5
CDM_260913-173905-234306-735521
2026-09-13T
17:39:40+0000
1.620 km
极远距离
4.349532E-6 低风险 0.48
CDM_260914-224805-234306-356821
2026-09-14T
22:48:52+0000
1.636 km
极远距离
4.196057E-6 低风险 0.47
与全量物体交会距离演化趋势
与全量物体交会风险概率演化趋势